Location: LDNL
(36.4545°S, 141.6685°E)
Time: 22:48:40
(UTC+11:00)

S-56A Canister/Altair - All Passes

Search period start: 30 January 2023 00:00
Search period end: 09 February 2023 00:00
Orbit: 639 x 2493 km, 38.9° (Epoch: 29 January)

Date Brightness Start Highest point End Pass type
(mag) Time Alt. Az. Time Alt. Az. Time Alt. Az.
30 Jan - 00:14:15 10° NW 00:28:44 55° NNE 00:40:43 10° ESE visible
30 Jan - 02:20:21 10° WNW 02:35:01 90° WSW 02:45:32 10° ESE visible
30 Jan - 04:28:34 10° W 04:41:21 79° S 04:49:42 10° E visible
30 Jan - 06:36:21 10° WSW 06:46:27 66° NNW 06:53:01 10° NE daylight
30 Jan - 08:44:39 10° W 08:49:18 17° NW 08:53:05 10° N daylight
30 Jan - 21:41:11 10° NNE 21:50:05 19° NE 21:58:48 10° E visible
30 Jan - 23:40:57 10° NW 23:55:12 51° NE 00:07:34 10° ESE visible
31 Jan - 01:46:31 10° WNW 02:01:31 87° NNE 02:12:42 10° ESE visible
31 Jan - 03:54:37 10° W 04:08:04 79° S 04:17:03 10° E visible
31 Jan - 06:02:34 10° WSW 06:13:34 74° NNW 06:20:38 10° ENE visible
31 Jan - 08:10:36 10° W 08:16:45 22° NW 08:21:28 10° N daylight
31 Jan - 21:09:27 10° NNE 21:16:49 16° NE 21:24:12 10° E visible
31 Jan - 23:07:47 10° NNW 23:21:41 47° NE 23:34:19 10° ESE visible
01 Feb - 01:12:45 10° WNW 01:27:57 83° NNE 01:39:47 10° ESE visible
01 Feb - 03:20:38 10° W 03:34:42 79° S 03:44:21 10° E visible
01 Feb - 05:28:44 10° WSW 05:40:34 80° NNW 05:48:11 10° ENE visible
01 Feb - 07:36:39 10° W 07:44:10 28° NW 07:49:38 10° NNE daylight
01 Feb - 20:38:29 10° NNE 20:43:36 13° NE 20:48:47 10° ENE daylight
01 Feb - 22:34:46 10° NNW 22:48:11 42° NE 23:00:55 10° ESE visible
02 Feb - 00:39:05 10° WNW 00:54:21 79° NNE 01:06:48 10° ESE visible
02 Feb - 02:46:40 10° W 03:01:15 80° S 03:11:35 10° E visible
02 Feb - 04:54:52 10° WSW 05:07:28 85° NNW 05:15:40 10° ENE visible
02 Feb - 07:02:45 10° WSW 07:11:30 35° NW 07:17:38 10° NNE daylight
02 Feb - 22:01:53 10° NNW 22:14:42 38° NE 22:27:24 10° ESE visible
03 Feb - 00:05:31 10° WNW 00:20:42 76° NNE 00:33:43 10° ESE visible
03 Feb - 02:12:43 10° W 02:27:42 81° S 02:38:44 10° E visible
03 Feb - 04:20:57 10° WSW 04:34:16 89° NNW 04:43:04 10° ENE visible
03 Feb - 06:28:51 10° WSW 06:38:46 42° NW 06:45:30 10° NNE daylight
03 Feb - 21:29:10 10° NNW 21:41:17 34° NE 21:53:43 10° E visible
03 Feb - 23:32:04 10° NW 23:47:02 71° NNE 00:00:33 10° ESE visible
04 Feb - 01:38:51 10° W 01:54:06 82° S 02:05:49 10° E visible
04 Feb - 03:47:00 10° WSW 04:00:57 88° SSE 04:10:25 10° ENE visible
04 Feb - 05:54:56 10° WSW 06:05:55 49° NW 06:13:17 10° NE visible
04 Feb - 08:07:19 10° WNW 08:08:19 10° WNW 08:09:16 10° NW daylight
04 Feb - 20:56:38 10° N 21:07:54 30° NE 21:19:51 10° E visible
04 Feb - 22:58:44 10° NW 23:13:22 67° NNE 23:27:17 10° ESE visible
05 Feb - 01:05:01 10° W 01:20:25 84° S 01:32:49 10° E visible
05 Feb - 03:13:04 10° W 03:27:33 85° S 03:37:41 10° E visible
05 Feb - 05:21:01 10° WSW 05:32:59 56° NW 05:40:58 10° NE visible
05 Feb - 07:31:05 10° W 07:35:44 15° NW 07:39:38 10° NNW daylight
05 Feb - 20:24:18 10° N 20:34:36 26° NE 20:45:48 10° E daylight
05 Feb - 22:25:33 10° NW 22:39:43 62° NNE 22:53:55 10° ESE visible
06 Feb - 00:31:17 10° WNW 00:46:41 86° SSW 00:59:44 10° ESE visible
06 Feb - 02:39:08 10° W 02:54:03 83° S 03:04:52 10° E visible
06 Feb - 04:47:06 10° WSW 04:59:55 63° NNW 05:08:33 10° NE visible
06 Feb - 06:56:23 10° W 07:03:06 19° NW 07:08:24 10° N daylight
06 Feb - 19:52:13 10° N 20:01:23 22° NE 20:11:29 10° E daylight
06 Feb - 21:52:29 10° NW 22:06:07 58° NE 22:20:27 10° ESE visible
06 Feb - 23:57:40 10° WNW 00:12:55 89° SSW 00:26:34 10° ESE visible
07 Feb - 02:05:14 10° W 02:20:27 82° S 02:31:58 10° E visible
07 Feb - 04:13:10 10° WSW 04:26:45 69° NNW 04:36:02 10° NE visible
07 Feb - 06:21:59 10° W 06:30:23 24° NW 06:36:45 10° N visible
07 Feb - 19:20:28 10° NNE 19:28:14 18° NE 19:36:50 10° E daylight
07 Feb - 21:19:33 10° NW 21:32:33 53° NE 21:46:51 10° ESE visible
07 Feb - 23:24:08 10° WNW 23:39:08 88° NNE 23:53:19 10° ESE visible
08 Feb - 01:31:23 10° W 01:46:46 81° S 01:58:59 10° E visible
08 Feb - 03:39:14 10° WSW 03:53:28 75° NNW 04:03:25 10° ENE visible
08 Feb - 05:47:44 10° W 05:57:36 30° NW 06:04:51 10° N visible
08 Feb - 18:49:15 10° NNE 18:55:10 14° NE 19:01:38 10° E daylight
08 Feb - 20:46:45 10° NNW 20:59:05 48° NE 21:13:09 10° ESE visible
08 Feb - 22:50:44 10° WNW 23:05:21 85° NNE 23:19:58 10° ESE visible
